Location: Caualo
(45.5667°N, 10.8667°E)
Time: 18:18:31
(UTC+00:00)

NOSS 2-1 (C) - Pass Details

Date: 07 June 2020
Orbit: 448 x 1755 km, 63.3° (Epoch: 29 June)

Event Time Altitude Azimuth Distance (km) Brightness Sun altitude
Exits shadow 01:12:31 43° 208° (SSW) 643 3.2 -16.7°
Maximum altitude 01:13:31 81° 129° (SE) 462 2.8 -16.6°
Drops below altitude 10° 01:17:03 10° 40° (NE) 1,661 7.1 -16.3°
Sets 01:19:19 0° 40° (NE) 2,638 8.5 -16.1°
